Regional Weather Roundup
Issued by NWS State College, PA

Home | Current Version | Previous Version | Graphics & Text | Print | Product List | Glossary Off
Versions: 1 2 3 4 5 6 7 8 9 10 11 12 13 14 15 16 17 18 19 20 21 22 23 24 25 26 27 28 29 30 31 32 33 34 35 36 37 38 39 40 41 42 43 44 45 46 47 48 49 50

000
ASUS41 KCTP 290003
RWRCTP

REGIONAL WEATHER ROUNDUP
NATIONAL WEATHER SERVICE STATE COLLEGE PA
800 PM EDT WED SEP 28 2016

Note: "fair" indicates few or no clouds below 12,000 feet with no
significant weather and/or obstructions to visibility.

* = STATION THAT DOES NOT REPORT PRECIPITATION /E.G. RAIN...SNOW...ETC/
    THUNDER OR FOG.

PAZ002>004-007>009-013>016-020>023-029>032-290100-
WESTERN PENNSYLVANIA

CITY           SKY/WX    TMP DP  RH WIND       PRES   REMARKS
ERIE           CLOUDY    66  52  60 E9        30.00R
MEADVILLE      CLOUDY    64  49  57 E7        30.00R
FRANKLIN*        N/A     63  45  51 E10G17    30.02R
NEW CASTLE     MOCLDY    63  58  83 E7        29.97R
BEAVER COUNTY  PTCLDY    66  55  68 SE15G25   29.95R
BUTLER*        CLEAR     64  54  68 E9        30.01R
PITTSBURGH INT MOCLDY    66  57  72 SE17G24   29.95R
PITTSBURGH     PTCLDY    64  54  69 E9        29.96R
INDIANA*       MOCLDY    64  54  68 E8        30.04R
LATROBE        MOCLDY    64  55  72 E8G18     29.98S
WASHINGTON CO* CLEAR     63  54  72 E9        29.95S
$$

PAZ004>006-010>012-017>019-024>028-033>037-041-042-045-046-049>053-290100-
CENTRAL PENNSYLVANIA

CITY           SKY/WX    TMP DP  RH WIND       PRES   REMARKS
BRADFORD       CLOUDY    61  50  67 SE8       30.09R
DUBOIS         CLOUDY    63  51  65 E15G22    30.04S
CLEARFIELD     CLOUDY    64  55  72 E10       30.07S
JOHNSTOWN      CLOUDY    60  54  80 E9G16     30.04F
ALTOONA        CLOUDY    63  57  81 E14       30.07R
STATE COLLEGE  CLOUDY    61  57  88 E7        30.10R
WILLIAMSPORT   CLOUDY    66  58  75 E8        30.11R
SELINSGROVE    MOCLDY    65  60  84 E7        30.11R
FT INDIANTOWN  CLOUDY    64  62  93 NE8       30.10R
CAPITAL CITY   CLOUDY    66  62  87 E10       30.07S
HARRISBURG     CLOUDY    66  64  93 E10       30.06F
YORK           LGT RAIN  65  64  97 E12       30.06R
$$

PAZ038>040-043-044-047-048-054-055-060>062-067>071-290100-
EASTERN PENNSYLVANIA

CITY           SKY/WX    TMP DP  RH WIND       PRES   REMARKS
SCRANTON       CLOUDY    61  55  81 NE5       30.17R
MOUNT POCONO   CLOUDY    55  53  93 E12G22    30.19R
ALLENTOWN      CLOUDY    64  55  72 E13       30.16R
QUAKERTOWN*    CLOUDY    63  57  82 E8        30.18R
READING        CLOUDY    64  59  83 E10G18    30.11F
LANCASTER      LGT RAIN  64  64 100 E16       30.09S
COATESVILLE    CLOUDY    63  59  88 E15G23    30.13S
POTTSTOWN      RAIN      61  59  93 E8        30.15R FOG
BLUE BELL      CLOUDY    61  57  88 E9        30.15R
DOYLESTOWN     CLOUDY    64  58  80 CALM      30.16R
WILLOW GROVE   NOT AVBL
NORTH PHILA    CLOUDY    65  58  78 E14       30.17R
PHILADELPHIA   LGT RAIN  64  59  83 E16G23    30.13R
$$




USA.gov is the U.S. government's official web portal to all federal, state and local government web resources and services.